Regional Weather Roundup
Issued by NWS

Home | Current Version | Previous Version | Graphics & Text | Print | Product List | Glossary On
Versions: 1 2 3 4 5 6 7 8 9 10 11 12 13 14 15 16 17 18 19 20 21 22 23 24 25 26 27 28 29 30 31 32 33 34 35 36 37 38 39 40 41 42 43 44 45 46 47 48 49 50
000
ASUS45 KABQ 031810
RWRNM
NEW MEXICO REGIONAL WEATHER ROUNDUP
NATIONAL WEATHER SERVICE ALBUQUERQUE NM
1200 PM MDT MON AUG 03 2015

NOTE: "FAIR" MEANS FEW OR NO CLOUDS BELOW 12,000 FEET AGL WITH NO
       SIGNIFICANT WEATHER OR OBSTRUCTIONS TO VISION.

      THIS PRODUCT IS RELEASED AS TWO VERSIONS.  ONE VERSION NEAR
      THE TOP OF THE HOUR CONTAINING PRELIMINARY DATA FROM ALBUQUERQUE
      AND OTHER STATIONS.  A FINAL VERSION WITH ADDITIONAL DATA IS
      ISSUED ABOUT 10 MINUTES AFTER THE HOUR.

NMZ501-503-504-510>518-031900-
NORTHWEST PLATEAU/NORTHCENTRAL MOUNTAINS

CITY           SKY/WX    TMP DP  RH WIND       PRES   REMARKS
FARMINGTON     SUNNY     76  56  49 VRB3      30.20F
6HR MIN TEMP:  57; 6HR MAX TEMP:  76;

LOS ALAMOS     MOSUNNY   68  56  63 E5        30.30S
SANTA FE       CLOUDY    73  54  51 VRB3      30.22F
6HR MIN TEMP:  59; 6HR MAX TEMP:  76;

TAOS           MOSUNNY  N/A N/A N/A SW6       30.28F
ANGEL FIRE     FAIR      66  52  59 W13       30.34F

$$
NMZ402-403-502-505>509-031900-
WESTCENTRAL MOUNTAINS/SOUTHWEST MOUNTAINS

CITY           SKY/WX    TMP DP  RH WIND       PRES   REMARKS
GALLUP         SUNNY     77  49  37 CALM      30.27S
6HR MIN TEMP:  48; 6HR MAX TEMP:  77;

GRANTS         SUNNY     75  58  54 N8        30.28F
SILVER CITY      N/A     82  54  36 E8        30.20F

$$
NMZ407-409-411-412-031900-
SOUTHERN DESERTS

CITY           SKY/WX    TMP DP  RH WIND       PRES   REMARKS
LORDSBURG      FAIR      86  55  35 N5        30.11S
DEMING         SUNNY     86  59  39 SW7       30.11F
6HR MIN TEMP:  67; 6HR MAX TEMP:  86;

LAS CRUCES     MOSUNNY   84  60  44 N3        30.13F
HOLLOMAN AFB   MOSUNNY   88  57  34 VRB6      30.06F
ALAMOGORDO     MOSUNNY   86  59  39 W3        30.09F
T OR C         MOSUNNY   84  55  36 SW5       30.13F
6HR MIN TEMP:  67; 6HR MAX TEMP:  84;


$$
NMZ519>523-031900-
CENTRAL VALLEYS/CENTRAL HIGHLANDS

CITY           SKY/WX    TMP DP  RH WIND       PRES   REMARKS
ALBUQUERQUE    MOSUNNY   79  55  43 W6        30.19F
6HR MIN TEMP:  63; 6HR MAX TEMP:  79;

DOUBLE EAGLE   MOSUNNY   75  55  50 W8        30.22S
MORIARTY ARPT    N/A     78  52  40 NW6       30.23S
6HR MIN TEMP:  56; 6HR MAX TEMP:  78;

CLINES CORNERS SUNNY     75  52  44 W18G26    30.25F
6HR MIN TEMP:  56; 6HR MAX TEMP:  75;

BELEN          FAIR      81  52  35 NW7       30.18S
6HR MIN TEMP:  59; 6HR MAX TEMP:  81;

SOCORRO        FAIR      81  59  47 NE7       30.14F
6HR MIN TEMP:  64; 6HR MAX TEMP:  81;


$$
NMZ524>526-539-540-031900-
SOUTHCENTRAL MOUNTAINS

CITY           SKY/WX    TMP DP  RH WIND       PRES   REMARKS
RUIDOSO          N/A    N/A N/A N/A MISG        N/A

$$
NMZ527>531-031900-
NORTHEAST HIGHLANDS/NORTHEAST PLAINS

CITY           SKY/WX    TMP DP  RH WIND       PRES   REMARKS
RATON          NOT AVBL
CLAYTON        MOSUNNY   82  60  47 VRB3      30.08F
6HR MIN TEMP:  67; 6HR MAX TEMP:  83;


$$
NMZ532>537-031900-
EASTCENTRAL PLAINS

CITY           SKY/WX    TMP DP  RH WIND       PRES   REMARKS
TUCUMCARI      SUNNY     81  65  58 CALM      30.04F
6HR MIN TEMP:  67; 6HR MAX TEMP:  81;

CANNON AFB     MOSUNNY   82  64  55 VRB2      30.07F
6HR MIN TEMP:  66; 6HR MAX TEMP:  82;

CLOVIS AIRPORT SUNNY     84  64  51 SE9       30.08F

$$
NMZ028-029-538-031900-
SOUTHEAST PLAINS

CITY           SKY/WX    TMP DP  RH WIND       PRES   REMARKS
ROSWELL        MOSUNNY   89  61  38 VRB6      30.02F
6HR MIN TEMP:  74; 6HR MAX TEMP:  89;

ARTESIA        MOSUNNY   88  61  40 CALM      30.03S
CARLSBAD       MOSUNNY   89  61  38 VRB5      30.00F
6HR MIN TEMP:  76; 6HR MAX TEMP:  89;

HOBBS          PTSUNNY   91  61  35 SE9       30.05S


$$


USA.gov is the U.S. government's official web portal to all federal, state and local government web resources and services.